| time (UTC) | temp F | wind direction | speed MPH | gust MPH | rain 1hr in | rain 24hr in | rain mn in | humidity % | barometer mb |
| 20260905071504 | 63 | 70 | 0.0 | 0.0 | 0.00 | 0.00 | 0.00 | 89 | 1014.3 |
| 20260905070002 | 63 | 70 | 0.0 | 0.0 | 0.00 | 0.00 | 0.00 | 88 | 1014.3 |
| 20260905064503 | 65 | 70 | 0.0 | 2.0 | 0.00 | 0.00 | 0.00 | 86 | 1014.4 |
| 20260905063018 | 64 | 70 | 0.0 | 0.0 | 0.00 | 0.00 | 0.00 | 87 | 1014.4 |
| 20260905061528 | 64 | 70 | 0.0 | 0.0 | 0.00 | 0.00 | 0.00 | 86 | 1014.6 |
| 20260905060015 | 64 | 70 | 0.0 | 0.0 | 0.00 | 0.00 | 0.00 | 87 | 1014.7 |
| 20260905054508 | 65 | 70 | 0.0 | 0.0 | 0.00 | 0.00 | 0.00 | 87 | 1014.7 |
| 20260905053006 | 65 | 70 | 0.0 | 0.0 | 0.00 | 0.00 | 0.00 | 86 | 1014.8 |
| 20260905051511 | 65 | 70 | 0.0 | 0.0 | 0.00 | 0.00 | 0.00 | 85 | 1014.7 |
| 20260905050018 | 65 | 70 | 0.0 | 0.0 | 0.00 | 0.00 | 0.00 | 85 | 1014.7 |
| 20260905044524 | 65 | 70 | 0.0 | 0.0 | 0.00 | 0.00 | 0.00 | 84 | 1014.6 |
| 20260905043018 | 65 | 70 | 0.0 | 0.0 | 0.00 | 0.00 | 0.00 | 86 | 1014.7 |
| 20260905041514 | 66 | 70 | 0.0 | 0.0 | 0.00 | 0.00 | 0.00 | 84 | 1014.7 |
| 20260905040010 | 67 | 70 | 0.0 | 2.0 | 0.00 | 0.00 | 0.00 | 84 | 1014.6 |
| 20260905034507 | 67 | 71 | 0.0 | 3.0 | 0.00 | 0.00 | 0.00 | 86 | 1014.7 |
| 20260905033006 | 67 | 321 | 0.0 | 0.0 | 0.00 | 0.00 | 0.00 | 88 | 1014.9 |
| 20260905031517 | 66 | 321 | 0.0 | 0.0 | 0.00 | 0.00 | 0.00 | 90 | 1014.8 |
| 20260905030020 | 67 | 321 | 0.0 | 0.0 | 0.00 | 0.00 | 0.00 | 90 | 1014.6 |
| 20260905024515 | 67 | 321 | 0.0 | 0.0 | 0.00 | 0.00 | 0.00 | 90 | 1014.8 |
| 20260905023016 | 68 | 321 | 0.0 | 0.0 | 0.00 | 0.00 | 0.00 | 90 | 1014.6 |
| 20260905021518 | 68 | 321 | 0.0 | 0.0 | 0.00 | 0.00 | 0.00 | 89 | 1014.6 |
| 20260905020008 | 69 | 321 | 0.0 | 0.0 | 0.00 | 0.00 | 0.00 | 88 | 1014.6 |
| 20260905014507 | 69 | 321 | 0.0 | 0.0 | 0.00 | 0.00 | 0.00 | 88 | 1014.6 |
| 20260905013020 | 69 | 321 | 0.0 | 0.0 | 0.00 | 0.00 | 0.00 | 1014.7 | |
| 20260905011520 | 70 | 321 | 0.0 | 0.0 | 0.00 | 0.09 | 0.00 | 85 | 1014.9 |
| 20260905010018 | 71 | 321 | 0.0 | 0.0 | 0.00 | 0.58 | 0.00 | 84 | 1014.9 |
| 20260905004518 | 71 | 321 | 0.0 | 0.0 | 0.00 | 0.58 | 0.00 | 83 | 1014.6 |
| 20260905003013 | 71 | 321 | 0.0 | 1.0 | 0.00 | 0.58 | 0.00 | 83 | 1014.5 |
| 20260905001508 | 71 | 321 | 0.0 | 0.0 | 0.00 | 0.58 | 0.00 | 82 | 1014.5 |
| 20260905000008 | 71 | 321 | 0.0 | 0.0 | 0.00 | 0.88 | 0.00 | 81 | 1014.5 |
| 20260904234520 | 72 | 321 | 0.0 | 1.0 | 0.00 | 0.88 | 0.00 | 80 | 1014.5 |
| 20260904233018 | 72 | 330 | 1.0 | 3.0 | 0.00 | 0.88 | 0.00 | 80 | 1014.4 |
| 20260904231522 | 72 | 343 | 0.0 | 3.0 | 0.00 | 0.88 | 0.00 | 79 | 1014.3 |
| 20260904230020 | 72 | 346 | 0.0 | 2.0 | 0.00 | 0.88 | 0.00 | 78 | 1014.2 |
| 20260904224518 | 73 | 346 | 0.0 | 2.0 | 0.00 | 0.88 | 0.00 | 78 | 1014.1 |
| 20260904223012 | 73 | 346 | 0.0 | 2.0 | 0.00 | 0.88 | 0.00 | 77 | 1013.9 |
| 20260904221523 | 73 | 331 | 0.0 | 2.0 | 0.00 | 0.88 | 0.00 | 77 | 1013.7 |
| 20260904220022 | 73 | 331 | 0.0 | 2.0 | 0.00 | 0.88 | 0.00 | 77 | 1013.7 |
| 20260904214519 | 73 | 325 | 0.0 | 2.0 | 0.00 | 0.88 | 0.00 | 76 | 1013.5 |
| 20260904213026 | 73 | 329 | 0.0 | 2.0 | 0.00 | 0.88 | 0.00 | 75 | 1013.4 |
| 20260904211523 | 73 | 345 | 1.0 | 2.0 | 0.00 | 0.88 | 0.00 | 75 | 1013.6 |
| 20260904210018 | 73 | 340 | 0.0 | 3.0 | 0.00 | 0.88 | 0.00 | 75 | 1014.0 |
| 20260904204516 | 74 | 298 | 0.0 | 5.0 | 0.00 | 0.88 | 0.00 | 73 | 1014.2 |
| 20260904203029 | 74 | 316 | 0.0 | 6.0 | 0.00 | 0.88 | 0.00 | 73 | 1014.3 |
| 20260904201507 | 74 | 297 | 0.0 | 4.0 | 0.00 | 0.88 | 0.00 | 72 | 1014.3 |
| 20260904200005 | 75 | 345 | 1.0 | 3.0 | 0.00 | 0.88 | 0.00 | 71 | 1014.5 |
| 20260904194526 | 75 | 346 | 1.0 | 5.0 | 0.00 | 0.88 | 0.00 | 71 | 1014.7 |
| 20260904193023 | 75 | 279 | 2.0 | 9.0 | 0.00 | 0.88 | 0.00 | 66 | 1014.8 |
| 20260904191519 | 75 | 297 | 1.0 | 5.0 | 0.00 | 0.88 | 0.00 | 67 | 1015.0 |
| 20260904190016 | 75 | 309 | 2.0 | 5.0 | 0.00 | 0.88 | 0.00 | 67 | 1015.2 |
| 20260904184519 | 76 | 233 | 1.0 | 6.0 | 0.00 | 0.88 | 0.00 | 65 | 1015.5 |
| 20260904183008 | 77 | 325 | 3.0 | 6.0 | 0.00 | 0.88 | 0.00 | 60 | 1015.5 |
| 20260904181514 | 77 | 269 | 1.0 | 5.0 | 0.00 | 0.88 | 0.00 | 63 | 1015.4 |
| 20260904180040 | 77 | 257 | 1.0 | 8.0 | 0.00 | 0.88 | 0.00 | 63 | 1015.5 |
| 20260904174523 | 79 | 301 | 3.0 | 8.0 | 0.00 | 0.88 | 0.00 | 57 | 1015.6 |
| 20260904173029 | 77 | 249 | 1.0 | 7.0 | 0.00 | 0.88 | 0.00 | 61 | 1015.6 |
| 20260904171535 | 77 | 311 | 1.0 | 7.0 | 0.00 | 0.88 | 0.00 | 62 | 1016.1 |
| 20260904170013 | 76 | 308 | 1.0 | 9.0 | 0.00 | 0.88 | 0.00 | 63 | 1016.2 |
| 20260904164510 | 77 | 352 | 3.0 | 6.0 | 0.00 | 0.88 | 0.00 | 61 | 1016.1 |
| 20260904163008 | 78 | 302 | 2.0 | 4.0 | 0.00 | 0.88 | 0.00 | 59 | 1016.3 |
| 20260904161524 | 76 | 360 | 0.0 | 7.0 | 0.00 | 0.88 | 0.00 | 64 | 1016.5 |
| 20260904160033 | 76 | 338 | 2.0 | 4.0 | 0.00 | 0.88 | 0.00 | 68 | 1016.6 |
| 20260904154534 | 74 | 320 | 1.0 | 4.0 | 0.00 | 0.88 | 0.00 | 67 | 1016.2 |
| 20260904153018 | 76 | 91 | 2.0 | 3.0 | 0.00 | 0.88 | 0.00 | 66 | 1016.1 |
| 20260904151514 | 74 | 338 | 2.0 | 3.0 | 0.00 | 0.88 | 0.00 | 67 | 1016.1 |
| 20260904150011 | 75 | 40 | 1.0 | 3.0 | 0.00 | 0.88 | 0.00 | 67 | 1016.2 |
| 20260904144526 | 73 | 17 | 0.0 | 2.0 | 0.00 | 0.88 | 0.00 | 70 | 1016.2 |
| 20260904143028 | 73 | 134 | 0.0 | 2.0 | 0.00 | 0.88 | 0.00 | 74 | 1016.0 |
| 20260904141524 | 74 | 44 | 1.0 | 4.0 | 0.00 | 0.88 | 0.00 | 72 | 1015.8 |
| 20260904140024 | 73 | 75 | 3.0 | 6.0 | 0.00 | 0.88 | 0.00 | 75 | 1015.7 |
| 20260904134523 | 72 | 79 | 1.0 | 4.0 | 0.00 | 0.88 | 0.00 | 75 | 1015.9 |
| 20260904133031 | 72 | 85 | 1.0 | 2.0 | 0.00 | 0.88 | 0.00 | 78 | 1016.0 |
| 20260904131513 | 71 | 85 | 0.0 | 2.0 | 0.00 | 0.88 | 0.00 | 77 | 1016.1 |
| 20260904130023 | 71 | 87 | 0.0 | 2.0 | 0.00 | 0.88 | 0.00 | 79 | 1016.2 |
| 20260904124525 | 71 | 87 | 0.0 | 2.0 | 0.00 | 0.88 | 0.00 | 80 | 1016.4 |
| 20260904123026 | 70 | 94 | 0.0 | 2.0 | 0.00 | 0.88 | 0.00 | 86 | 1016.2 |
| 20260904121528 | 68 | 94 | 0.0 | 0.0 | 0.00 | 0.88 | 0.00 | 93 | 1016.0 |
| 20260904120027 | 67 | 94 | 0.0 | 0.0 | 0.00 | 0.88 | 0.00 | 95 | 1016.1 |
| 20260904114516 | 67 | 94 | 0.0 | 0.0 | 0.00 | 0.88 | 0.00 | 95 | 1015.9 |
| 20260904113015 | 66 | 94 | 0.0 | 0.0 | 0.00 | 0.88 | 0.00 | 95 | 1015.7 |
| 20260904111511 | 65 | 94 | 0.0 | 0.0 | 0.00 | 0.88 | 0.00 | 95 | 1015.5 |
| 20260904110013 | 66 | 94 | 0.0 | 0.0 | 0.00 | 0.88 | 0.00 | 95 | 1015.5 |
| 20260904104504 | 66 | 94 | 0.0 | 0.0 | 0.00 | 0.88 | 0.00 | 95 | 1015.4 |
| 20260904103027 | 67 | 94 | 0.0 | 0.0 | 0.00 | 0.88 | 0.00 | 95 | 1015.5 |
| 20260904101535 | 67 | 94 | 0.0 | 0.0 | 0.00 | 0.88 | 0.00 | 95 | 1015.4 |
| 20260904100018 | 67 | 94 | 0.0 | 0.0 | 0.00 | 0.88 | 0.00 | 95 | 1015.4 |
| 20260904094516 | 67 | 94 | 0.0 | 0.0 | 0.00 | 0.88 | 0.00 | 95 | 1015.3 |
| 20260904093010 | 67 | 94 | 0.0 | 0.0 | 0.00 | 0.88 | 0.00 | 95 | 1015.2 |
| 20260904091509 | 67 | 94 | 0.0 | 0.0 | 0.00 | 0.88 | 0.00 | 95 | 1015.2 |
| 20260904090027 | 67 | 94 | 0.0 | 1.0 | 0.00 | 0.88 | 0.00 | 95 | 1015.1 |
| 20260904084527 | 68 | 94 | 0.0 | 0.0 | 0.00 | 0.88 | 0.00 | 95 | 1015.3 |
| 20260904083028 | 68 | 94 | 0.0 | 0.0 | 0.00 | 0.88 | 0.00 | 95 | 1015.3 |
| 20260904081521 | 68 | 94 | 0.0 | 0.0 | 0.00 | 0.88 | 0.00 | 95 | 1015.0 |
| 20260904080016 | 68 | 94 | 0.0 | 0.0 | 0.00 | 0.88 | 0.00 | 95 | 1014.9 |
| 20260904074513 | 68 | 94 | 0.0 | 0.0 | 0.00 | 0.88 | 0.00 | 95 | 1014.7 |
| 20260904073009 | 68 | 94 | 0.0 | 0.0 | 0.00 | 0.88 | 0.00 | 95 | 1014.6 |